Time,TemperatureF,DewpointF,PressureIn,WindDirection,WindDirectionDegrees,WindSpeedMPH,WindSpeedGustMPH,Humidity,HourlyPrecipIn,Conditions,Clouds,dailyrainin,SolarRadiationWatts/m^2,SoftwareType,DateUTC
2013-11-23 00:00:00,76.2,71.0,30.07,East,84,4.0,5.0,84,0.00,,,0.75,0,Wunderground v.1.15,2013-11-23 05:00:00,
2013-11-23 00:02:00,76.2,71.0,30.07,NE,53,4.0,5.0,84,0.00,,,0.00,0,Wunderground v.1.15,2013-11-23 05:02:00,
2013-11-23 00:06:00,76.3,71.1,30.07,East,80,4.0,5.0,84,0.00,,,0.00,0,Wunderground v.1.15,2013-11-23 05:06:00,
2013-11-23 00:10:00,76.3,70.8,30.07,ENE,74,3.0,3.0,83,0.00,,,0.00,0,Wunderground v.1.15,2013-11-23 05:10:00,
2013-11-23 00:16:00,76.5,71.3,30.06,East,81,3.0,3.0,84,0.00,,,0.00,0,Wunderground v.1.15,2013-11-23 05:16:00,
2013-11-23 00:22:00,76.6,71.0,30.06,East,88,3.0,6.0,83,0.00,,,0.00,0,Wunderground v.1.15,2013-11-23 05:22:00,
2013-11-23 00:26:00,76.6,70.7,30.06,NE,55,3.0,6.0,82,0.00,,,0.00,0,Wunderground v.1.15,2013-11-23 05:26:00,
2013-11-23 00:32:00,76.8,70.9,30.06,NE,44,4.0,8.0,82,0.00,,,0.00,0,Wunderground v.1.15,2013-11-23 05:32:00,
2013-11-23 00:36:00,76.9,71.0,30.05,NE,52,5.0,8.0,82,0.00,,,0.00,0,Wunderground v.1.15,2013-11-23 05:36:00,
2013-11-23 00:42:00,77.0,71.1,30.05,ENE,60,2.0,3.0,82,0.00,,,0.00,0,Wunderground v.1.15,2013-11-23 05:42:00,
2013-11-23 00:50:00,77.0,71.1,30.05,NNE,32,4.0,5.0,82,0.00,,,0.00,0,Wunderground v.1.15,2013-11-23 05:50:00,
2013-11-23 00:56:00,76.9,71.0,30.05,ENE,58,5.0,10.0,82,0.00,,,0.00,0,Wunderground v.1.15,2013-11-23 05:56:00,
2013-11-23 01:02:00,76.7,70.4,30.05,NNE,29,4.0,5.0,81,0.00,,,0.00,0,Wunderground v.1.15,2013-11-23 06:02:00,
2013-11-23 01:10:00,76.7,70.8,30.04,ENE,60,5.0,5.0,82,0.00,,,0.00,0,Wunderground v.1.15,2013-11-23 06:10:00,
2013-11-23 01:16:00,76.8,70.9,30.04,ENE,72,4.0,11.0,82,0.00,,,0.00,0,Wunderground v.1.15,2013-11-23 06:16:00,
2013-11-23 01:22:00,76.8,70.5,30.04,ENE,63,4.0,4.0,81,0.00,,,0.00,0,Wunderground v.1.15,2013-11-23 06:22:00,
2013-11-23 01:30:00,76.8,70.5,30.04,NE,44,3.0,5.0,81,0.00,,,0.00,0,Wunderground v.1.15,2013-11-23 06:30:00,
2013-11-23 01:36:00,76.9,70.6,30.03,East,83,3.0,7.0,81,0.00,,,0.00,0,Wunderground v.1.15,2013-11-23 06:36:00,
2013-11-23 01:42:00,76.9,70.6,30.03,NE,53,3.0,14.0,81,0.00,,,0.00,0,Wunderground v.1.15,2013-11-23 06:42:00,
2013-11-23 01:50:00,76.9,70.6,30.03,ENE,60,4.0,5.0,81,0.00,,,0.00,0,Wunderground v.1.15,2013-11-23 06:50:00,
2013-11-23 01:56:00,76.9,71.0,30.03,ENE,64,3.0,10.0,82,0.00,,,0.00,0,Wunderground v.1.15,2013-11-23 06:56:00,
2013-11-23 02:02:00,76.9,70.6,30.03,NE,51,2.0,5.0,81,0.00,,,0.00,0,Wunderground v.1.15,2013-11-23 07:02:00,
2013-11-23 02:10:00,77.0,70.7,30.03,ENE,72,3.0,3.0,81,0.00,,,0.00,0,Wunderground v.1.15,2013-11-23 07:10:00,
2013-11-23 02:16:00,77.0,70.7,30.03,ESE,105,3.0,7.0,81,0.00,,,0.00,0,Wunderground v.1.15,2013-11-23 07:16:00,
2013-11-23 02:22:00,77.0,70.7,30.03,NE,56,4.0,4.0,81,0.00,,,0.00,0,Wunderground v.1.15,2013-11-23 07:22:00,
2013-11-23 02:30:00,77.1,70.8,30.03,East,79,4.0,7.0,81,0.00,,,0.00,0,Wunderground v.1.15,2013-11-23 07:30:00,
2013-11-23 02:36:00,77.1,70.8,30.03,East,87,2.0,7.0,81,0.00,,,0.00,0,Wunderground v.1.15,2013-11-23 07:36:00,
2013-11-23 02:42:00,77.0,70.7,30.03,East,96,1.0,6.0,81,0.00,,,0.00,0,Wunderground v.1.15,2013-11-23 07:42:00,
2013-11-23 02:50:00,77.1,71.2,30.03,ENE,71,3.0,3.0,82,0.00,,,0.00,0,Wunderground v.1.15,2013-11-23 07:50:00,
2013-11-23 02:56:00,77.1,71.2,30.03,ENE,63,3.0,9.0,82,0.00,,,0.00,0,Wunderground v.1.15,2013-11-23 07:56:00,
2013-11-23 03:02:00,77.2,71.3,30.03,NE,40,3.0,7.0,82,0.00,,,0.00,0,Wunderground v.1.15,2013-11-23 08:02:00,
2013-11-23 03:10:00,77.2,71.3,30.03,NE,49,2.0,2.0,82,0.00,,,0.00,0,Wunderground v.1.15,2013-11-23 08:10:00,
2013-11-23 03:16:00,77.1,71.2,30.03,NE,42,1.0,5.0,82,0.00,,,0.00,0,Wunderground v.1.15,2013-11-23 08:16:00,
2013-11-23 03:22:00,77.0,71.1,30.03,East,83,4.0,9.0,82,0.00,,,0.00,0,Wunderground v.1.15,2013-11-23 08:22:00,
2013-11-23 03:30:00,77.0,71.1,30.02,NE,40,4.0,4.0,82,0.00,,,0.00,0,Wunderground v.1.15,2013-11-23 08:30:00,
2013-11-23 03:36:00,77.1,71.2,30.02,East,87,5.0,6.0,82,0.00,,,0.00,0,Wunderground v.1.15,2013-11-23 08:36:00,
2013-11-23 03:42:00,77.0,70.7,30.02,NNE,30,4.0,4.0,81,0.00,,,0.00,0,Wunderground v.1.15,2013-11-23 08:42:00,
2013-11-23 03:50:00,77.1,71.2,30.02,ENE,72,4.0,4.0,82,0.00,,,0.00,0,Wunderground v.1.15,2013-11-23 08:50:00,
2013-11-23 03:56:00,77.1,71.2,30.02,ENE,76,4.0,8.0,82,0.00,,,0.00,0,Wunderground v.1.15,2013-11-23 08:56:00,
2013-11-23 04:02:00,77.0,70.7,30.02,NE,48,2.0,6.0,81,0.00,,,0.00,0,Wunderground v.1.15,2013-11-23 09:02:00,
2013-11-23 04:08:00,77.0,70.7,30.02,ENE,78,3.0,9.0,81,0.00,,,0.00,0,Wunderground v.1.15,2013-11-23 09:08:00,
2013-11-23 04:14:00,77.0,71.1,30.02,East,83,2.0,3.0,82,0.00,,,0.00,0,Wunderground v.1.15,2013-11-23 09:14:00,
2013-11-23 04:20:00,76.9,71.3,30.02,ENE,63,3.0,5.0,83,0.00,,,0.00,0,Wunderground v.1.15,2013-11-23 09:20:00,
2013-11-23 04:26:00,76.8,71.2,30.02,NE,49,5.0,7.0,83,0.00,,,0.00,0,Wunderground v.1.15,2013-11-23 09:26:00,
2013-11-23 04:32:00,76.7,71.1,30.02,NE,55,3.0,3.0,83,0.00,,,0.00,0,Wunderground v.1.15,2013-11-23 09:32:00,
2013-11-23 04:38:00,76.6,70.7,30.02,NE,45,4.0,9.0,82,0.00,,,0.00,0,Wunderground v.1.15,2013-11-23 09:38:00,
2013-11-23 04:44:00,76.6,70.3,30.02,NE,41,5.0,5.0,81,0.00,,,0.00,0,Wunderground v.1.15,2013-11-23 09:44:00,
2013-11-23 04:50:00,76.7,70.8,30.02,NE,46,4.0,7.0,82,0.00,,,0.00,0,Wunderground v.1.15,2013-11-23 09:50:00,
2013-11-23 04:56:00,76.7,70.4,30.02,East,86,3.0,7.0,81,0.00,,,0.00,0,Wunderground v.1.15,2013-11-23 09:56:00,
2013-11-23 05:02:00,76.8,70.9,30.02,ENE,66,3.0,11.0,82,0.00,,,0.00,0,Wunderground v.1.15,2013-11-23 10:02:00,
2013-11-23 05:08:00,76.9,71.0,30.02,North,10,5.0,11.0,82,0.00,,,0.00,0,Wunderground v.1.15,2013-11-23 10:08:00,
2013-11-23 05:14:00,76.9,71.0,30.02,NNE,19,6.0,11.0,82,0.00,,,0.00,0,Wunderground v.1.15,2013-11-23 10:14:00,
2013-11-23 05:20:00,76.9,71.0,30.02,ENE,60,4.0,5.0,82,0.00,,,0.00,0,Wunderground v.1.15,2013-11-23 10:20:00,
2013-11-23 05:26:00,76.8,70.5,30.02,NE,56,4.0,5.0,81,0.00,,,0.00,0,Wunderground v.1.15,2013-11-23 10:26:00,
2013-11-23 05:32:00,76.9,70.6,30.02,ENE,76,4.0,11.0,81,0.00,,,0.00,0,Wunderground v.1.15,2013-11-23 10:32:00,
2013-11-23 05:38:00,77.0,70.7,30.02,NE,56,5.0,11.0,81,0.00,,,0.00,0,Wunderground v.1.15,2013-11-23 10:38:00,
2013-11-23 05:44:00,76.9,70.6,30.02,NE,46,4.0,13.0,81,0.00,,,0.00,0,Wunderground v.1.15,2013-11-23 10:44:00,
2013-11-23 05:50:00,76.9,70.6,30.02,East,83,4.0,4.0,81,0.00,,,0.00,0,Wunderground v.1.15,2013-11-23 10:50:00,
2013-11-23 05:56:00,76.9,70.3,30.02,ENE,68,5.0,9.0,80,0.00,,,0.00,0,Wunderground v.1.15,2013-11-23 10:56:00,
2013-11-23 06:02:00,77.0,70.7,30.02,ESE,109,2.0,8.0,81,0.00,,,0.00,0,Wunderground v.1.15,2013-11-23 11:02:00,
2013-11-23 06:08:00,77.0,71.1,30.02,ENE,76,3.0,8.0,82,0.00,,,0.00,0,Wunderground v.1.15,2013-11-23 11:08:00,
2013-11-23 06:14:00,76.9,71.0,30.02,ENE,64,6.0,7.0,82,0.00,,,0.00,0,Wunderground v.1.15,2013-11-23 11:14:00,
2013-11-23 06:20:00,76.9,71.0,30.02,ENE,61,6.0,6.0,82,0.00,,,0.00,0,Wunderground v.1.15,2013-11-23 11:20:00,
2013-11-23 06:26:00,76.8,70.5,30.02,ENE,68,6.0,9.0,81,0.00,,,0.00,0,Wunderground v.1.15,2013-11-23 11:26:00,
2013-11-23 06:32:00,76.8,70.9,30.03,ENE,68,4.0,5.0,82,0.00,,,0.00,0,Wunderground v.1.15,2013-11-23 11:32:00,
2013-11-23 06:38:00,76.9,71.0,30.03,NNE,29,4.0,12.0,82,0.00,,,0.00,0,Wunderground v.1.15,2013-11-23 11:38:00,
2013-11-23 06:44:00,76.8,70.5,30.03,ENE,64,6.0,8.0,81,0.00,,,0.00,0,Wunderground v.1.15,2013-11-23 11:44:00,
2013-11-23 06:50:00,76.8,70.5,30.03,ENE,59,5.0,9.0,81,0.00,,,0.00,7,Wunderground v.1.15,2013-11-23 11:50:00,
2013-11-23 06:56:00,76.9,71.0,30.03,East,94,4.0,11.0,82,0.00,,,0.00,11,Wunderground v.1.15,2013-11-23 11:56:00,
2013-11-23 07:02:00,77.0,71.4,30.03,ENE,72,3.0,4.0,83,0.00,,,0.00,18,Wunderground v.1.15,2013-11-23 12:02:00,
2013-11-23 07:08:00,77.0,71.4,30.04,ENE,60,4.0,5.0,83,0.00,,,0.00,23,Wunderground v.1.15,2013-11-23 12:08:00,
2013-11-23 07:14:00,76.9,71.0,30.04,NE,41,5.0,5.0,82,0.00,,,0.00,28,Wunderground v.1.15,2013-11-23 12:14:00,
2013-11-23 07:20:00,77.1,71.2,30.04,ENE,74,4.0,4.0,82,0.00,,,0.00,26,Wunderground v.1.15,2013-11-23 12:20:00,
2013-11-23 07:26:00,77.1,71.5,30.04,East,91,5.0,10.0,83,0.00,,,0.00,35,Wunderground v.1.15,2013-11-23 12:26:00,
2013-11-23 07:32:00,77.1,71.2,30.04,ENE,78,5.0,11.0,82,0.00,,,0.00,44,Wunderground v.1.15,2013-11-23 12:32:00,
2013-11-23 07:38:00,77.2,71.3,30.05,East,92,6.0,11.0,82,0.00,,,0.00,77,Wunderground v.1.15,2013-11-23 12:38:00,
2013-11-23 07:44:00,77.3,71.4,30.05,East,87,4.0,8.0,82,0.00,,,0.00,90,Wunderground v.1.15,2013-11-23 12:44:00,
2013-11-23 07:50:00,77.5,71.6,30.05,East,86,4.0,9.0,82,0.00,,,0.00,65,Wunderground v.1.15,2013-11-23 12:50:00,
2013-11-23 07:56:00,77.6,71.7,30.05,East,82,3.0,11.0,82,0.00,,,0.00,79,Wunderground v.1.15,2013-11-23 12:56:00,
2013-11-23 08:02:00,77.8,71.9,30.06,NE,50,2.0,3.0,82,0.00,,,0.00,204,Wunderground v.1.15,2013-11-23 13:02:00,
2013-11-23 08:08:00,78.0,71.7,30.06,East,88,4.0,14.0,81,0.00,,,0.00,123,Wunderground v.1.15,2013-11-23 13:08:00,
2013-11-23 08:14:00,78.2,71.9,30.06,East,84,5.0,5.0,81,0.00,,,0.00,179,Wunderground v.1.15,2013-11-23 13:14:00,
2013-11-23 08:20:00,78.4,72.1,30.06,NE,44,4.0,4.0,81,0.00,,,0.00,169,Wunderground v.1.15,2013-11-23 13:20:00,
2013-11-23 08:26:00,78.4,71.7,30.06,ENE,67,4.0,7.0,80,0.00,,,0.00,105,Wunderground v.1.15,2013-11-23 13:26:00,
2013-11-23 08:32:00,78.4,71.7,30.06,East,87,4.0,7.0,80,0.00,,,0.00,172,Wunderground v.1.15,2013-11-23 13:32:00,
2013-11-23 08:38:00,78.6,71.9,30.07,East,82,4.0,7.0,80,0.00,,,0.00,221,Wunderground v.1.15,2013-11-23 13:38:00,
2013-11-23 08:44:00,79.1,72.0,30.07,East,96,3.0,10.0,79,0.00,,,0.00,162,Wunderground v.1.15,2013-11-23 13:44:00,
2013-11-23 08:50:00,79.1,72.0,30.07,ENE,68,4.0,4.0,79,0.00,,,0.00,123,Wunderground v.1.15,2013-11-23 13:50:00,
2013-11-23 08:56:00,79.0,71.9,30.07,NE,46,3.0,9.0,79,0.00,,,0.00,153,Wunderground v.1.15,2013-11-23 13:56:00,
2013-11-23 09:02:00,78.9,72.2,30.07,East,79,4.0,11.0,80,0.00,,,0.00,272,Wunderground v.1.15,2013-11-23 14:02:00,
2013-11-23 09:08:00,79.1,72.4,30.07,NE,49,4.0,11.0,80,0.00,,,0.00,510,Wunderground v.1.15,2013-11-23 14:08:00,
2013-11-23 09:14:00,79.4,72.3,30.07,NE,45,4.0,8.0,79,0.00,,,0.00,471,Wunderground v.1.15,2013-11-23 14:14:00,
2013-11-23 09:20:00,79.7,72.6,30.08,NNE,28,5.0,6.0,79,0.00,,,0.00,448,Wunderground v.1.15,2013-11-23 14:20:00,
2013-11-23 09:26:00,79.8,72.3,30.07,ENE,71,5.0,7.0,78,0.00,,,0.00,490,Wunderground v.1.15,2013-11-23 14:26:00,
2013-11-23 09:32:00,80.1,72.6,30.07,ESE,106,4.0,5.0,78,0.00,,,0.00,490,Wunderground v.1.15,2013-11-23 14:32:00,
2013-11-23 09:38:00,80.2,72.3,30.07,East,83,4.0,10.0,77,0.00,,,0.00,513,Wunderground v.1.15,2013-11-23 14:38:00,
2013-11-23 09:44:00,80.2,72.7,30.07,East,87,6.0,6.0,78,0.00,,,0.00,503,Wunderground v.1.15,2013-11-23 14:44:00,
2013-11-23 09:50:00,80.4,72.5,30.07,ENE,70,5.0,5.0,77,0.00,,,0.00,503,Wunderground v.1.15,2013-11-23 14:50:00,
2013-11-23 09:56:00,80.5,72.2,30.07,ENE,59,4.0,10.0,76,0.00,,,0.00,214,Wunderground v.1.15,2013-11-23 14:56:00,
2013-11-23 10:02:00,80.0,72.1,30.07,ENE,65,6.0,8.0,77,0.00,,,0.00,195,Wunderground v.1.15,2013-11-23 15:02:00,
2013-11-23 10:08:00,79.9,72.4,30.07,NE,49,5.0,8.0,78,0.00,,,0.00,478,Wunderground v.1.15,2013-11-23 15:08:00,
2013-11-23 10:14:00,80.3,72.4,30.07,ENE,58,3.0,10.0,77,0.00,,,0.00,257,Wunderground v.1.15,2013-11-23 15:14:00,
2013-11-23 10:20:00,80.5,72.2,30.07,NE,56,5.0,5.0,76,0.00,,,0.00,689,Wunderground v.1.15,2013-11-23 15:20:00,
2013-11-23 10:26:00,80.6,72.7,30.07,East,90,6.0,10.0,77,0.00,,,0.00,585,Wunderground v.1.15,2013-11-23 15:26:00,
2013-11-23 10:32:00,80.6,72.3,30.07,NE,44,7.0,8.0,76,0.00,,,0.00,608,Wunderground v.1.15,2013-11-23 15:32:00,
2013-11-23 10:38:00,80.6,72.3,30.07,NE,47,6.0,8.0,76,0.00,,,0.00,619,Wunderground v.1.15,2013-11-23 15:38:00,
2013-11-23 10:44:00,80.8,72.5,30.07,ENE,58,5.0,7.0,76,0.00,,,0.00,728,Wunderground v.1.15,2013-11-23 15:44:00,
2013-11-23 10:50:00,81.1,72.8,30.06,East,85,4.0,4.0,76,0.00,,,0.00,687,Wunderground v.1.15,2013-11-23 15:50:00,
2013-11-23 10:56:00,81.3,72.6,30.06,NNE,12,4.0,14.0,75,0.00,,,0.00,657,Wunderground v.1.15,2013-11-23 15:56:00,
2013-11-23 11:02:00,81.2,72.5,30.06,ENE,63,5.0,5.0,75,0.00,,,0.00,202,Wunderground v.1.15,2013-11-23 16:02:00,
2013-11-23 11:08:00,80.8,72.1,30.06,NNE,18,5.0,9.0,75,0.00,,,0.00,693,Wunderground v.1.15,2013-11-23 16:08:00,
2013-11-23 11:14:00,80.6,72.3,30.06,NE,45,6.0,10.0,76,0.00,,,0.00,689,Wunderground v.1.15,2013-11-23 16:14:00,
2013-11-23 11:20:00,80.3,72.0,30.06,ENE,67,7.0,9.0,76,0.00,,,0.00,287,Wunderground v.1.15,2013-11-23 16:20:00,
2013-11-23 11:26:00,80.2,72.3,30.06,East,95,5.0,9.0,77,0.00,,,0.00,352,Wunderground v.1.15,2013-11-23 16:26:00,
2013-11-23 11:32:00,80.4,72.1,30.05,ENE,70,3.0,8.0,76,0.00,,,0.00,290,Wunderground v.1.15,2013-11-23 16:32:00,
2013-11-23 11:38:00,80.1,71.8,30.05,NE,46,5.0,8.0,76,0.00,,,0.00,336,Wunderground v.1.15,2013-11-23 16:38:00,
2013-11-23 11:44:00,79.9,72.0,30.05,NE,37,6.0,12.0,77,0.00,,,0.00,320,Wunderground v.1.15,2013-11-23 16:44:00,
2013-11-23 11:50:00,79.7,71.8,30.05,NE,50,6.0,7.0,77,0.00,,,0.00,359,Wunderground v.1.15,2013-11-23 16:50:00,
2013-11-23 11:56:00,79.8,71.9,30.04,NNE,31,6.0,11.0,77,0.00,,,0.00,264,Wunderground v.1.15,2013-11-23 16:56:00,
2013-11-23 12:02:00,79.8,71.9,30.04,NE,44,4.0,10.0,77,0.00,,,0.00,276,Wunderground v.1.15,2013-11-23 17:02:00,
2013-11-23 12:08:00,79.9,72.0,30.03,North,5,5.0,12.0,77,0.00,,,0.00,359,Wunderground v.1.15,2013-11-23 17:08:00,
2013-11-23 12:14:00,80.1,71.8,30.04,NE,34,6.0,6.0,76,0.00,,,0.00,455,Wunderground v.1.15,2013-11-23 17:14:00,
2013-11-23 12:20:00,80.3,71.6,30.03,ENE,63,5.0,5.0,75,0.00,,,0.00,315,Wunderground v.1.15,2013-11-23 17:20:00,
2013-11-23 12:26:00,80.1,71.8,30.03,NE,46,5.0,9.0,76,0.00,,,0.00,343,Wunderground v.1.15,2013-11-23 17:26:00,
2013-11-23 12:32:00,79.9,71.7,30.03,NE,55,6.0,6.0,76,0.00,,,0.00,468,Wunderground v.1.15,2013-11-23 17:32:00,
2013-11-23 12:38:00,79.9,71.7,30.02,ESE,113,5.0,8.0,76,0.00,,,0.00,243,Wunderground v.1.15,2013-11-23 17:38:00,
2013-11-23 12:44:00,80.0,72.1,30.02,NNE,24,2.0,4.0,77,0.00,,,0.00,309,Wunderground v.1.15,2013-11-23 17:44:00,
2013-11-23 12:50:00,80.0,71.8,30.02,ENE,62,3.0,3.0,76,0.00,,,0.00,234,Wunderground v.1.15,2013-11-23 17:50:00,
2013-11-23 12:56:00,79.6,71.4,30.02,East,90,5.0,11.0,76,0.00,,,0.00,285,Wunderground v.1.15,2013-11-23 17:56:00,
2013-11-23 13:02:00,79.5,71.3,30.01,NE,34,4.0,11.0,76,0.00,,,0.00,258,Wunderground v.1.15,2013-11-23 18:02:00,
2013-11-23 13:08:00,79.4,71.6,30.01,NE,53,5.0,11.0,77,0.00,,,0.00,257,Wunderground v.1.15,2013-11-23 18:08:00,
2013-11-23 13:14:00,79.2,71.4,30.01,ESE,110,5.0,7.0,77,0.00,,,0.00,223,Wunderground v.1.15,2013-11-23 18:14:00,
2013-11-23 13:20:00,79.1,71.6,30.00,NE,39,4.0,5.0,78,0.00,,,0.00,220,Wunderground v.1.15,2013-11-23 18:20:00,
2013-11-23 13:26:00,79.3,71.8,30.00,NE,41,2.0,5.0,78,0.00,,,0.00,350,Wunderground v.1.15,2013-11-23 18:26:00,
2013-11-23 13:32:00,79.3,71.8,30.00,NE,52,4.0,7.0,78,0.00,,,0.00,225,Wunderground v.1.15,2013-11-23 18:32:00,
2013-11-23 13:38:00,79.3,71.8,30.00,ENE,71,4.0,7.0,78,0.00,,,0.00,206,Wunderground v.1.15,2013-11-23 18:38:00,
2013-11-23 13:44:00,79.3,71.8,30.00,East,84,3.0,8.0,78,0.00,,,0.00,213,Wunderground v.1.15,2013-11-23 18:44:00,
2013-11-23 13:50:00,79.3,71.8,30.00,East,82,2.0,2.0,78,0.00,,,0.00,156,Wunderground v.1.15,2013-11-23 18:50:00,
2013-11-23 13:56:00,79.1,71.6,30.00,ENE,65,3.0,10.0,78,0.00,,,0.00,128,Wunderground v.1.15,2013-11-23 18:56:00,
2013-11-23 14:02:00,79.0,71.6,30.00,East,85,2.0,3.0,78,0.00,,,0.00,132,Wunderground v.1.15,2013-11-23 19:02:00,
2013-11-23 14:08:00,78.8,71.4,29.99,ENE,71,2.0,7.0,78,0.00,,,0.00,141,Wunderground v.1.15,2013-11-23 19:08:00,
2013-11-23 14:14:00,78.8,71.7,29.99,ENE,67,2.0,3.0,79,0.00,,,0.00,144,Wunderground v.1.15,2013-11-23 19:14:00,
2013-11-23 14:20:00,78.8,71.7,29.99,ENE,74,1.0,9.0,79,0.00,,,0.00,144,Wunderground v.1.15,2013-11-23 19:20:00,
2013-11-23 14:26:00,78.8,71.7,29.99,ENE,78,1.0,9.0,79,0.00,,,0.00,149,Wunderground v.1.15,2013-11-23 19:26:00,
2013-11-23 14:32:00,78.8,71.7,29.99,NE,42,1.0,2.0,79,0.00,,,0.00,137,Wunderground v.1.15,2013-11-23 19:32:00,
2013-11-23 14:38:00,78.7,71.6,29.98,East,86,2.0,8.0,79,0.00,,,0.00,149,Wunderground v.1.15,2013-11-23 19:38:00,
2013-11-23 14:44:00,78.5,71.4,29.98,ENE,72,3.0,5.0,79,0.00,,,0.00,167,Wunderground v.1.15,2013-11-23 19:44:00,
2013-11-23 14:50:00,78.7,71.6,29.98,ENE,68,2.0,2.0,79,0.00,,,0.00,160,Wunderground v.1.15,2013-11-23 19:50:00,
2013-11-23 14:56:00,78.7,71.6,29.98,East,79,2.0,8.0,79,0.00,,,0.00,158,Wunderground v.1.15,2013-11-23 19:56:00,
2013-11-23 15:02:00,78.8,72.1,29.98,NE,45,3.0,9.0,80,0.00,,,0.00,204,Wunderground v.1.15,2013-11-23 20:02:00,
2013-11-23 15:08:00,78.9,71.8,29.98,ENE,75,2.0,9.0,79,0.00,,,0.00,230,Wunderground v.1.15,2013-11-23 20:08:00,
2013-11-23 15:14:00,79.1,72.0,29.98,East,96,2.0,6.0,79,0.00,,,0.00,302,Wunderground v.1.15,2013-11-23 20:14:00,
2013-11-23 15:20:00,79.4,71.9,29.98,East,81,3.0,9.0,78,0.00,,,0.00,169,Wunderground v.1.15,2013-11-23 20:20:00,
2013-11-23 15:26:00,79.5,72.0,29.98,ENE,76,3.0,9.0,78,0.00,,,0.00,165,Wunderground v.1.15,2013-11-23 20:26:00,
2013-11-23 15:32:00,79.4,71.9,29.98,East,95,4.0,9.0,78,0.00,,,0.00,367,Wunderground v.1.15,2013-11-23 20:32:00,
2013-11-23 15:38:00,79.4,71.9,29.98,ENE,61,5.0,9.0,78,0.00,,,0.00,332,Wunderground v.1.15,2013-11-23 20:38:00,
2013-11-23 15:44:00,79.5,72.0,29.97,NE,54,5.0,5.0,78,0.00,,,0.00,278,Wunderground v.1.15,2013-11-23 20:44:00,
2013-11-23 15:50:00,79.5,72.0,29.97,ENE,64,3.0,4.0,78,0.00,,,0.00,260,Wunderground v.1.15,2013-11-23 20:50:00,
2013-11-23 15:56:00,79.3,71.8,29.97,East,85,3.0,9.0,78,0.00,,,0.00,62,Wunderground v.1.15,2013-11-23 20:56:00,
2013-11-23 16:02:00,79.2,71.7,29.97,East,91,4.0,6.0,78,0.00,,,0.00,69,Wunderground v.1.15,2013-11-23 21:02:00,
2013-11-23 16:08:00,79.1,71.6,29.98,NNE,29,3.0,7.0,78,0.00,,,0.00,53,Wunderground v.1.15,2013-11-23 21:08:00,
2013-11-23 16:14:00,79.1,71.6,29.98,ENE,62,2.0,4.0,78,0.00,,,0.00,76,Wunderground v.1.15,2013-11-23 21:14:00,
2013-11-23 16:20:00,79.0,71.9,29.98,NE,41,2.0,2.0,79,0.00,,,0.00,53,Wunderground v.1.15,2013-11-23 21:20:00,
2013-11-23 16:26:00,78.8,71.7,29.98,ESE,119,2.0,7.0,79,0.00,,,0.00,53,Wunderground v.1.15,2013-11-23 21:26:00,
2013-11-23 16:32:00,78.6,71.5,29.98,East,86,2.0,8.0,79,0.00,,,0.00,76,Wunderground v.1.15,2013-11-23 21:32:00,
2013-11-23 16:38:00,78.6,71.9,29.98,ENE,59,2.0,8.0,80,0.00,,,0.00,54,Wunderground v.1.15,2013-11-23 21:38:00,
2013-11-23 16:44:00,78.6,71.5,29.98,East,82,1.0,3.0,79,0.00,,,0.00,35,Wunderground v.1.15,2013-11-23 21:44:00,
2013-11-23 16:50:00,78.5,71.4,29.98,ENE,71,1.0,1.0,79,0.00,,,0.00,33,Wunderground v.1.15,2013-11-23 21:50:00,
2013-11-23 16:56:00,78.4,71.7,29.98,NE,34,1.0,11.0,80,0.00,,,0.00,32,Wunderground v.1.15,2013-11-23 21:56:00,
2013-11-23 17:02:00,78.3,71.6,29.98,ENE,71,0.0,8.0,80,0.00,,,0.00,21,Wunderground v.1.15,2013-11-23 22:02:00,
2013-11-23 17:08:00,78.2,71.5,29.99,ESE,113,1.0,8.0,80,0.00,,,0.00,11,Wunderground v.1.15,2013-11-23 22:08:00,
2013-11-23 17:14:00,78.0,71.3,29.98,ENE,67,0.0,1.0,80,0.00,,,0.00,7,Wunderground v.1.15,2013-11-23 22:14:00,
2013-11-23 17:20:00,77.8,71.1,29.99,ENE,65,0.0,0.0,80,0.00,,,0.00,5,Wunderground v.1.15,2013-11-23 22:20:00,
2013-11-23 17:26:00,77.7,71.0,29.99,ENE,64,0.0,0.0,80,0.00,,,0.00,0,Wunderground v.1.15,2013-11-23 22:26:00,
2013-11-23 17:32:00,77.6,71.3,29.99,NNE,15,0.0,0.0,81,0.00,,,0.00,0,Wunderground v.1.15,2013-11-23 22:32:00,
2013-11-23 17:38:00,77.5,71.2,29.99,NE,51,0.0,0.0,81,0.00,,,0.00,0,Wunderground v.1.15,2013-11-23 22:38:00,
2013-11-23 17:44:00,77.4,71.1,29.99,NE,51,0.0,1.0,81,0.00,,,0.00,0,Wunderground v.1.15,2013-11-23 22:44:00,
2013-11-23 17:50:00,77.4,71.1,29.99,ENE,72,0.0,0.0,81,0.00,,,0.00,0,Wunderground v.1.15,2013-11-23 22:50:00,
2013-11-23 17:56:00,77.4,71.5,29.99,ENE,71,0.0,9.0,82,0.00,,,0.00,0,Wunderground v.1.15,2013-11-23 22:56:00,
2013-11-23 18:02:00,77.5,71.6,29.99,ENE,57,0.0,0.0,82,0.00,,,0.00,0,Wunderground v.1.15,2013-11-23 23:02:00,
2013-11-23 18:08:00,77.5,71.6,29.99,ESE,103,0.0,0.0,82,0.00,,,0.00,0,Wunderground v.1.15,2013-11-23 23:08:00,
2013-11-23 18:14:00,77.5,71.6,29.99,ESE,103,0.0,0.0,82,0.00,,,0.00,0,Wunderground v.1.15,2013-11-23 23:14:00,
2013-11-23 18:20:00,77.4,71.5,30.00,East,84,0.0,0.0,82,0.00,,,0.00,0,Wunderground v.1.15,2013-11-23 23:20:00,
2013-11-23 18:26:00,77.4,71.8,30.00,East,86,0.0,0.0,83,0.00,,,0.00,0,Wunderground v.1.15,2013-11-23 23:26:00,
2013-11-23 18:32:00,77.4,71.8,30.00,East,86,0.0,0.0,83,0.00,,,0.00,0,Wunderground v.1.15,2013-11-23 23:32:00,
2013-11-23 18:38:00,77.4,71.8,30.00,East,88,0.0,0.0,83,0.00,,,0.00,0,Wunderground v.1.15,2013-11-23 23:38:00,
2013-11-23 18:44:00,77.4,71.8,30.00,ENE,72,0.0,0.0,83,0.00,,,0.00,0,Wunderground v.1.15,2013-11-23 23:44:00,
2013-11-23 18:50:00,77.5,71.9,30.00,ENE,72,0.0,0.0,83,0.00,,,0.00,0,Wunderground v.1.15,2013-11-23 23:50:00,
2013-11-23 18:56:00,77.5,71.9,30.00,ENE,72,0.0,0.0,83,0.00,,,0.00,0,Wunderground v.1.15,2013-11-23 23:56:00,
2013-11-23 19:02:00,77.6,72.0,30.00,ESE,106,0.0,0.0,83,0.00,,,0.00,0,Wunderground v.1.15,2013-11-24 00:02:00,
2013-11-23 19:08:00,77.7,72.1,30.00,East,98,0.0,0.0,83,0.00,,,0.00,0,Wunderground v.1.15,2013-11-24 00:08:00,
2013-11-23 19:14:00,77.7,71.8,30.00,East,98,0.0,0.0,82,0.00,,,0.00,0,Wunderground v.1.15,2013-11-24 00:14:00,
2013-11-23 19:20:00,77.8,71.9,30.01,East,98,0.0,0.0,82,0.00,,,0.00,0,Wunderground v.1.15,2013-11-24 00:20:00,
2013-11-23 19:26:00,77.8,71.9,30.01,East,98,0.0,0.0,82,0.00,,,0.00,0,Wunderground v.1.15,2013-11-24 00:26:00,
2013-11-23 19:32:00,77.7,71.8,30.00,East,96,0.0,0.0,82,0.00,,,0.00,0,Wunderground v.1.15,2013-11-24 00:32:00,
2013-11-23 19:38:00,77.7,71.8,30.01,NE,51,0.0,0.0,82,0.00,,,0.00,0,Wunderground v.1.15,2013-11-24 00:38:00,
2013-11-23 19:44:00,77.7,71.8,30.01,NE,51,0.0,0.0,82,0.00,,,0.00,0,Wunderground v.1.15,2013-11-24 00:44:00,
2013-11-23 19:50:00,77.6,71.7,30.01,NE,51,0.0,0.0,82,0.00,,,0.00,0,Wunderground v.1.15,2013-11-24 00:50:00,
2013-11-23 19:56:00,77.6,71.7,30.01,NE,51,0.0,0.0,82,0.00,,,0.00,0,Wunderground v.1.15,2013-11-24 00:56:00,
2013-11-23 20:02:00,77.5,71.9,30.01,NE,51,0.0,0.0,83,0.00,,,0.00,0,Wunderground v.1.15,2013-11-24 01:02:00,
2013-11-23 20:08:00,77.5,71.9,30.01,ENE,67,0.0,0.0,83,0.00,,,0.00,0,Wunderground v.1.15,2013-11-24 01:08:00,
2013-11-23 20:14:00,77.5,71.9,30.01,ENE,60,0.0,0.0,83,0.00,,,0.00,0,Wunderground v.1.15,2013-11-24 01:14:00,
2013-11-23 20:20:00,77.6,71.7,30.02,ENE,59,0.0,0.0,82,0.00,,,0.00,0,Wunderground v.1.15,2013-11-24 01:20:00,
2013-11-23 20:26:00,77.6,71.7,30.02,NE,49,0.0,0.0,82,0.00,,,0.00,0,Wunderground v.1.15,2013-11-24 01:26:00,
2013-11-23 20:32:00,77.7,71.8,30.02,NE,51,0.0,0.0,82,0.00,,,0.00,0,Wunderground v.1.15,2013-11-24 01:32:00,
2013-11-23 20:38:00,77.7,71.8,30.01,ENE,60,0.0,0.0,82,0.00,,,0.00,0,Wunderground v.1.15,2013-11-24 01:38:00,
2013-11-23 20:44:00,77.7,71.8,30.02,NE,37,0.0,3.0,82,0.00,,,0.00,0,Wunderground v.1.15,2013-11-24 01:44:00,
2013-11-23 20:50:00,77.7,71.4,30.02,NE,49,0.0,0.0,81,0.00,,,0.00,0,Wunderground v.1.15,2013-11-24 01:50:00,
2013-11-23 20:56:00,77.6,71.7,30.02,NE,49,0.0,0.0,82,0.00,,,0.00,0,Wunderground v.1.15,2013-11-24 01:56:00,
2013-11-23 21:02:00,77.5,71.6,30.02,NE,52,0.0,0.0,82,0.00,,,0.00,0,Wunderground v.1.15,2013-11-24 02:02:00,
2013-11-23 21:08:00,77.3,71.0,30.02,NE,36,0.0,0.0,81,0.00,,,0.00,0,Wunderground v.1.15,2013-11-24 02:08:00,
2013-11-23 21:14:00,77.2,71.3,30.02,NNE,26,0.0,0.0,82,0.00,,,0.00,0,Wunderground v.1.15,2013-11-24 02:14:00,
2013-11-23 21:20:00,77.1,71.2,30.02,NE,47,0.0,0.0,82,0.00,,,0.00,0,Wunderground v.1.15,2013-11-24 02:20:00,
2013-11-23 21:26:00,77.1,71.2,30.02,NE,34,0.0,0.0,82,0.00,,,0.00,0,Wunderground v.1.15,2013-11-24 02:26:00,
2013-11-23 21:32:00,77.0,71.1,30.02,NE,34,0.0,0.0,82,0.00,,,0.00,0,Wunderground v.1.15,2013-11-24 02:32:00,
2013-11-23 21:38:00,76.9,71.0,30.02,NE,34,0.0,0.0,82,0.00,,,0.00,0,Wunderground v.1.15,2013-11-24 02:38:00,
2013-11-23 21:44:00,76.9,71.0,30.02,NE,36,0.0,0.0,82,0.00,,,0.00,0,Wunderground v.1.15,2013-11-24 02:44:00,
2013-11-23 21:50:00,76.9,71.0,30.02,NE,38,0.0,0.0,82,0.00,,,0.00,0,Wunderground v.1.15,2013-11-24 02:50:00,
2013-11-23 21:56:00,76.9,70.6,30.02,NE,38,0.0,0.0,81,0.00,,,0.00,0,Wunderground v.1.15,2013-11-24 02:56:00,
2013-11-23 22:02:00,77.0,70.7,30.02,NE,40,0.0,0.0,81,0.00,,,0.00,0,Wunderground v.1.15,2013-11-24 03:02:00,
2013-11-23 22:08:00,76.9,70.6,30.03,NE,40,0.0,0.0,81,0.00,,,0.00,0,Wunderground v.1.15,2013-11-24 03:08:00,
2013-11-23 22:14:00,76.8,70.5,30.03,NE,40,0.0,0.0,81,0.00,,,0.00,0,Wunderground v.1.15,2013-11-24 03:14:00,
2013-11-23 22:20:00,76.8,70.5,30.03,NE,40,0.0,0.0,81,0.00,,,0.00,0,Wunderground v.1.15,2013-11-24 03:20:00,
2013-11-23 22:26:00,76.8,70.5,30.03,NE,40,0.0,0.0,81,0.00,,,0.00,0,Wunderground v.1.15,2013-11-24 03:26:00,
2013-11-23 22:32:00,76.8,70.5,30.03,NE,40,0.0,0.0,81,0.00,,,0.00,0,Wunderground v.1.15,2013-11-24 03:32:00,
2013-11-23 22:38:00,76.7,70.4,30.02,ENE,61,0.0,0.0,81,0.00,,,0.00,0,Wunderground v.1.15,2013-11-24 03:38:00,
2013-11-23 22:44:00,76.4,69.4,30.02,SE,146,0.0,0.0,79,0.00,,,0.00,0,Wunderground v.1.15,2013-11-24 03:44:00,
2013-11-23 22:50:00,76.0,68.6,30.03,SE,146,0.0,0.0,78,0.00,,,0.00,0,Wunderground v.1.15,2013-11-24 03:50:00,
2013-11-23 22:56:00,75.7,68.7,30.02,SE,146,0.0,0.0,79,0.00,,,0.00,0,Wunderground v.1.15,2013-11-24 03:56:00,
2013-11-23 23:02:00,75.4,68.4,30.02,SE,146,0.0,0.0,79,0.00,,,0.00,0,Wunderground v.1.15,2013-11-24 04:02:00,
2013-11-23 23:08:00,75.2,68.2,30.02,SE,146,0.0,0.0,79,0.00,,,0.00,0,Wunderground v.1.15,2013-11-24 04:08:00,
2013-11-23 23:14:00,75.0,68.4,30.02,SE,146,0.0,0.0,80,0.00,,,0.00,0,Wunderground v.1.15,2013-11-24 04:14:00,
2013-11-23 23:20:00,74.8,68.2,30.02,SE,146,0.0,0.0,80,0.00,,,0.00,0,Wunderground v.1.15,2013-11-24 04:20:00,
2013-11-23 23:26:00,74.6,68.4,30.01,SE,146,0.0,0.0,81,0.00,,,0.00,0,Wunderground v.1.15,2013-11-24 04:26:00,
2013-11-23 23:32:00,74.4,68.5,30.01,SE,146,0.0,0.0,82,0.00,,,0.00,0,Wunderground v.1.15,2013-11-24 04:32:00,
2013-11-23 23:38:00,74.2,68.7,30.01,SE,146,0.0,0.0,83,0.00,,,0.00,0,Wunderground v.1.15,2013-11-24 04:38:00,
2013-11-23 23:44:00,74.2,69.1,30.01,SE,146,0.0,0.0,84,0.00,,,0.00,0,Wunderground v.1.15,2013-11-24 04:44:00,
2013-11-23 23:50:00,74.0,68.9,30.01,SE,146,0.0,0.0,84,0.00,,,0.00,0,Wunderground v.1.15,2013-11-24 04:50:00,
2013-11-23 23:58:00,73.9,68.8,30.01,SE,146,0.0,0.0,84,0.00,,,0.00,0,Wunderground v.1.15,2013-11-24 04:58:00,